AEROCUBE 7

Last updated on Fri Jul 10 2026 00:03:49 GMT+0000 (Coordinated Universal Time)

1 40966U 15058C 26189.69562997 .00003209 00000+0 26071-3 0 9995 2 40966 64.7606 177.4388 0121597 53.2521 307.9684 14.95872823369179
UTC large
Height (km)
Speed (km/s)
/
Latitude / Longitude
Inclination (degrees)
Orbital Period (minutes)
Azimuth
Elevation
Range (km)
Doppler Factor

Next 0 passes for location: London (51.5072 / 0.1276)

No passes found over London.
AEROCUBE 7